| time (UTC) | temp C | wind direction | speed KPH | gust KPH | rain 1hr cm | rain 24hr cm | rain mn cm | humidity % | barometer mb |
| 20260505003016 | 8 | 0.0 | 3.2 | 0.00 | 0.58 | 0.00 | 92 | 1008.1 | |
| 20260505001516 | 7 | 0.0 | 1.6 | 0.00 | 0.58 | 0.00 | 92 | 1008.1 | |
| 20260505000036 | 7 | 0.0 | 1.6 | 0.00 | 0.58 | 0.58 | 91 | 1007.9 | |
| 20260504234517 | 7 | 0.0 | 3.2 | 0.00 | 0.58 | 0.58 | 91 | 1007.8 | |
| 20260504233016 | 7 | 0.0 | 3.2 | 0.00 | 0.58 | 0.58 | 91 | 1007.8 | |
| 20260504231516 | 8 | 0.0 | 1.6 | 0.00 | 0.58 | 0.58 | 91 | 1007.7 | |
| 20260504230016 | 8 | 45 | 1.6 | 8.0 | 0.00 | 0.58 | 0.58 | 91 | 1007.6 |
| 20260504224516 | 8 | 0.0 | 3.2 | 0.00 | 0.58 | 0.58 | 91 | 1007.8 | |
| 20260504223016 | 9 | 0.0 | 3.2 | 0.00 | 0.58 | 0.58 | 90 | 1007.7 | |
| 20260504221516 | 9 | 203 | 1.6 | 8.0 | 0.00 | 0.58 | 0.58 | 90 | 1007.6 |
| 20260504220016 | 9 | 0.0 | 3.2 | 0.00 | 0.58 | 0.58 | 89 | 1007.9 | |
| 20260504214536 | 10 | 45 | 3.2 | 11.3 | 0.03 | 0.58 | 0.58 | 90 | 1007.6 |
| 20260504213016 | 10 | 23 | 3.2 | 8.0 | 0.13 | 0.58 | 0.58 | 90 | 1007.9 |
| 20260504211516 | 10 | 23 | 1.6 | 8.0 | 0.25 | 0.58 | 0.58 | 90 | 1008.0 |
| 20260504210016 | 10 | 23 | 1.6 | 8.0 | 0.25 | 0.58 | 0.58 | 89 | 1008.5 |
| 20260504204516 | 10 | 248 | 3.2 | 9.7 | 0.23 | 0.56 | 0.56 | 90 | 1009.0 |
| 20260504203016 | 11 | 248 | 4.8 | 14.5 | 0.13 | 0.46 | 0.46 | 90 | 1009.1 |
| 20260504201516 | 12 | 203 | 1.6 | 9.7 | 0.00 | 0.33 | 0.33 | 92 | 1008.6 |
| 20260504200016 | 12 | 0.0 | 0.0 | 0.00 | 0.33 | 0.33 | 92 | 1008.4 | |
| 20260504194516 | 12 | 0.0 | 0.0 | 0.00 | 0.33 | 0.33 | 91 | 1008.3 | |
| 20260504193016 | 12 | 0.0 | 1.6 | 0.00 | 0.33 | 0.33 | 91 | 1008.3 | |
| 20260504191516 | 12 | 0.0 | 3.2 | 0.00 | 0.33 | 0.33 | 91 | 1008.2 | |
| 20260504190016 | 12 | 203 | 1.6 | 4.8 | 0.00 | 0.33 | 0.33 | 90 | 1008.2 |
| 20260504184516 | 12 | 0.0 | 3.2 | 0.00 | 0.33 | 0.33 | 90 | 1007.7 | |
| 20260504183016 | 12 | 0.0 | 3.2 | 0.00 | 0.33 | 0.33 | 89 | 1007.6 | |
| 20260504181536 | 12 | 0.0 | 3.2 | 0.00 | 0.33 | 0.33 | 89 | 1007.5 | |
| 20260504180015 | 12 | 0.0 | 1.6 | 0.00 | 0.33 | 0.33 | 89 | 1007.2 | |
| 20260504174536 | 12 | 0.0 | 1.6 | 0.00 | 0.33 | 0.33 | 89 | 1007.5 | |
| 20260504173015 | 12 | 0.0 | 1.6 | 0.00 | 0.33 | 0.33 | 89 | 1007.6 | |
| 20260504171516 | 12 | 0.0 | 1.6 | 0.00 | 0.33 | 0.33 | 89 | 1007.7 | |
| 20260504081517 | 12 | 0.0 | 4.8 | 0.00 | 0.18 | 0.18 | 92 | 1009.8 | |
| 20260504050016 | 10 | 0.0 | 3.2 | 0.00 | 0.05 | 0.03 | 92 | 1009.7 | |
| 20260504044536 | 10 | 45 | 1.6 | 4.8 | 0.00 | 0.08 | 0.03 | 92 | 1009.5 |
| 20260504043016 | 10 | 0.0 | 3.2 | 0.00 | 0.08 | 0.03 | 92 | 1009.5 | |
| 20260504041516 | 10 | 0.0 | 1.6 | 0.00 | 0.10 | 0.03 | 92 | 1009.7 | |
| 20260504040016 | 10 | 0.0 | 1.6 | 0.00 | 0.10 | 0.03 | 91 | 1009.4 | |
| 20260504034516 | 10 | 0.0 | 3.2 | 0.00 | 0.10 | 0.03 | 91 | 1009.5 | |
| 20260504033036 | 10 | 0.0 | 3.2 | 0.00 | 0.15 | 0.03 | 91 | 1009.5 | |
| 20260504031536 | 10 | 0.0 | 1.6 | 0.03 | 0.15 | 0.03 | 91 | 1009.4 | |
| 20260504030036 | 10 | 0.0 | 1.6 | 0.03 | 0.18 | 0.03 | 91 | 1009.2 | |
| 20260504024516 | 10 | 0.0 | 1.6 | 0.03 | 0.20 | 0.03 | 90 | 1009.5 | |
| 20260504023016 | 10 | 0.0 | 1.6 | 0.03 | 0.20 | 0.03 | 90 | 1009.4 | |
| 20260504021536 | 11 | 0.0 | 0.0 | 0.00 | 0.18 | 0.00 | 90 | 1009.2 | |
| 20260504020016 | 11 | 0.0 | 0.0 | 0.00 | 0.18 | 0.00 | 90 | 1009.4 | |
| 20260504014516 | 11 | 0.0 | 0.0 | 0.00 | 0.18 | 0.00 | 90 | 1009.5 | |
| 20260504013036 | 11 | 0.0 | 0.0 | 0.00 | 0.18 | 0.00 | 90 | 1009.7 | |
| 20260504011516 | 11 | 0.0 | 1.6 | 0.00 | 0.18 | 0.00 | 89 | 1009.9 | |
| 20260504010056 | 11 | 0.0 | 1.6 | 0.00 | 0.18 | 0.00 | 89 | 1009.9 | |
| 20260504004516 | 11 | 0.0 | 3.2 | 0.00 | 0.18 | 0.00 | 89 | 1009.7 |